To NAV CANADA Home Page Login to a new session Search on AWWS site Feedback and Comments Disclaimer Vers la page française équivalente Tips FAQ What's new on the site To the Forecasts and Observations / NOTAM section To "File a Flight Plan" website Publications and other links Update of the User's profile FIC Telephone Numbers My Weather Data Folder Route Weather Data Regional Weather Data Local Weather Data To the Forecasts and Observations / NOTAM section
Request Generated 08/26/2016 at 17:23:00 UTC . Weather information available at that time is displayed.

METAR/TAF

KANGIQSUJUAQ/KANGIQSUJUAQ (WAKEHAM BAY)/QC    

METAR CYKG 261700Z 20018KT 15SM OVC025 08/04 A2961 RMK SC8 SLP036=
METAR CYKG 261600Z 21021KT 15SM SCT030 OVC070 08/04 A2959 RMK SC4AS4
SLP030=
METAR CYKG 261500Z 21021G27KT 15SM SCT030 OVC070 08/04 A2957 RMK
SC3AS5 SLP024=

CYKG - No TAF is issued for this station

Your time UTC time
Weather data provided by Environment Canada and NAV CANADA